Stations météo

réclame
Mon MeteoGroup
Achnagart, Grande-Bretagne (99191): Température de l'air & dewpoint: 22.05.2018 06:00:00 - 28.05.2018 06:00:00 (BST)Achnagart, Grande-Bretagne (99191): Quantités de précipitations: 22.05.2018 06:00:00 - 28.05.2018 06:00:00 (BST)
Date & Time tt [°C] td [°C] rr [mm]
28.05.2018 06:00:00 - - -
28.05.2018 05:00:00 14,1 7,6 0,0
28.05.2018 04:00:00 14,9 7,2 0,0
28.05.2018 03:00:00 16,9 7,3 0,0
28.05.2018 02:00:00 17,6 7,5 0,0
28.05.2018 01:00:00 18,5 7,6 0,0
28.05.2018 00:00:00 19,3 8,1 0,0
27.05.2018 23:00:00 19,6 8,7 0,0
27.05.2018 22:00:00 20,1 9,0 0,0
27.05.2018 21:00:00 21,4 9,6 0,0
27.05.2018 20:00:00 22,8 9,4 0,0
27.05.2018 19:00:00 23,4 9,6 0,0
27.05.2018 18:00:00 25,7 10,3 0,0
27.05.2018 17:00:00 26,4 9,8 0,0
27.05.2018 16:00:00 26,0 9,0 0,0
27.05.2018 15:00:00 26,4 10,3 0,0
27.05.2018 14:00:00 25,6 10,6 0,0
27.05.2018 13:00:00 25,0 10,6 0,0
27.05.2018 12:00:00 23,5 10,7 0,0
27.05.2018 11:00:00 20,6 8,4 0,0
27.05.2018 10:00:00 19,4 8,8 0,0
27.05.2018 09:00:00 17,3 6,7 0,0
27.05.2018 08:00:00 16,0 5,6 0,0
27.05.2018 07:00:00 15,2 5,6 0,0
27.05.2018 06:00:00 11,9 6,6 0,0
27.05.2018 05:00:00 11,0 6,9 0,0
27.05.2018 04:00:00 11,2 6,8 0,0
27.05.2018 03:00:00 11,3 7,3 0,0
27.05.2018 02:00:00 11,4 7,7 0,0
27.05.2018 01:00:00 12,3 8,5 0,0
27.05.2018 00:00:00 13,0 8,9 0,0
26.05.2018 23:00:00 14,0 9,5 0,0
26.05.2018 22:00:00 15,2 9,8 0,0
26.05.2018 21:00:00 17,8 10,5 0,0
26.05.2018 20:00:00 19,7 10,7 0,0
26.05.2018 19:00:00 21,4 11,0 0,0
26.05.2018 18:00:00 22,3 11,9 0,0
26.05.2018 17:00:00 23,8 11,7 0,0
26.05.2018 16:00:00 24,1 11,8 0,0
26.05.2018 15:00:00 24,7 12,3 0,0
26.05.2018 14:00:00 23,7 11,9 0,0
26.05.2018 13:00:00 22,0 11,5 0,0
26.05.2018 12:00:00 18,2 10,0 0,0
26.05.2018 11:00:00 16,6 9,5 0,0
26.05.2018 10:00:00 14,8 8,8 0,0
26.05.2018 09:00:00 13,4 8,0 0,0
26.05.2018 08:00:00 11,4 7,4 0,0
26.05.2018 07:00:00 10,5 7,5 -
26.05.2018 06:00:00 10,5 7,6 0,0
26.05.2018 05:00:00 10,5 7,4 0,0
26.05.2018 04:00:00 11,2 7,4 0,0
26.05.2018 03:00:00 11,9 7,6 0,0
26.05.2018 02:00:00 12,6 6,7 0,0
26.05.2018 01:00:00 12,5 7,1 0,0
26.05.2018 00:00:00 12,3 7,5 0,0
25.05.2018 23:00:00 13,9 7,4 0,0
25.05.2018 22:00:00 14,4 8,0 0,0
25.05.2018 21:00:00 15,8 8,3 0,0
25.05.2018 20:00:00 16,7 8,6 0,0
25.05.2018 19:00:00 17,7 8,8 0,0
25.05.2018 18:00:00 19,4 10,0 0,0
25.05.2018 17:00:00 20,6 10,5 0,0
25.05.2018 16:00:00 21,3 10,1 0,0
25.05.2018 15:00:00 21,3 12,2 0,0
25.05.2018 14:00:00 20,5 11,9 0,0
25.05.2018 13:00:00 19,6 12,6 0,0
25.05.2018 12:00:00 17,8 12,4 0,0
25.05.2018 11:00:00 16,8 11,4 0,0
25.05.2018 10:00:00 14,4 11,4 0,0
25.05.2018 09:00:00 12,7 10,2 0,0
25.05.2018 08:00:00 11,5 10,4 0,0
25.05.2018 07:00:00 10,1 10,0 0,0
25.05.2018 06:00:00 9,2 8,8 0,0
25.05.2018 05:00:00 9,9 9,3 0,0
25.05.2018 04:00:00 10,0 9,4 0,0
25.05.2018 03:00:00 10,1 9,3 0,0
25.05.2018 02:00:00 10,5 9,5 0,0
25.05.2018 01:00:00 11,0 9,8 0,0
25.05.2018 00:00:00 11,3 9,3 0,0
24.05.2018 23:00:00 12,4 9,6 0,0
24.05.2018 22:00:00 13,8 10,0 0,0
24.05.2018 21:00:00 15,8 9,6 0,0
24.05.2018 20:00:00 18,1 10,4 0,0
24.05.2018 19:00:00 19,8 11,0 0,0
24.05.2018 18:00:00 20,9 10,5 0,0
24.05.2018 17:00:00 22,7 11,4 0,0
24.05.2018 16:00:00 20,8 10,6 0,0
24.05.2018 15:00:00 23,3 7,9 0,0
24.05.2018 14:00:00 22,8 6,9 0,0
24.05.2018 13:00:00 22,6 7,8 0,0
24.05.2018 12:00:00 21,8 6,7 0,0
24.05.2018 11:00:00 21,1 6,1 0,0
24.05.2018 10:00:00 20,0 10,3 0,0
24.05.2018 09:00:00 15,8 10,0 0,0
24.05.2018 08:00:00 10,9 7,8 0,0
24.05.2018 07:00:00 10,1 7,1 0,0
24.05.2018 06:00:00 10,2 6,9 0,0
24.05.2018 05:00:00 11,2 7,4 0,0
24.05.2018 04:00:00 11,4 7,4 0,0
24.05.2018 03:00:00 11,2 7,5 0,0
24.05.2018 02:00:00 11,5 7,9 0,0
24.05.2018 01:00:00 8,5 8,1 -
24.05.2018 00:00:00 8,2 7,4 0,0
23.05.2018 23:00:00 10,1 8,4 0,0
23.05.2018 22:00:00 11,4 8,6 0,0
23.05.2018 21:00:00 14,6 9,4 0,0
23.05.2018 20:00:00 16,4 9,5 0,0
23.05.2018 19:00:00 17,7 9,4 0,0
23.05.2018 18:00:00 19,3 9,6 0,0
23.05.2018 17:00:00 21,5 8,8 0,0
23.05.2018 16:00:00 21,6 10,3 0,0
23.05.2018 15:00:00 20,8 9,0 0,0
23.05.2018 14:00:00 20,3 9,2 0,0
23.05.2018 13:00:00 18,9 9,7 0,0
23.05.2018 12:00:00 17,7 7,6 0,0
23.05.2018 11:00:00 16,9 9,2 0,0
23.05.2018 10:00:00 15,2 8,7 0,0
23.05.2018 09:00:00 12,1 7,7 0,0
23.05.2018 08:00:00 10,0 6,8 0,0
23.05.2018 07:00:00 9,1 6,7 0,0
23.05.2018 06:00:00 8,9 6,5 0,0
23.05.2018 05:00:00 9,0 6,3 0,0
23.05.2018 04:00:00 9,4 6,4 0,0
23.05.2018 03:00:00 9,8 6,4 0,0
23.05.2018 02:00:00 10,2 6,6 0,0
23.05.2018 01:00:00 10,2 6,7 0,0
23.05.2018 00:00:00 10,3 6,7 0,0
22.05.2018 23:00:00 10,5 6,7 0,0
22.05.2018 22:00:00 10,6 6,8 0,0
22.05.2018 21:00:00 10,8 7,0 0,0
22.05.2018 20:00:00 10,9 7,2 0,0
22.05.2018 19:00:00 11,2 7,1 0,0
22.05.2018 18:00:00 11,8 7,2 0,0
22.05.2018 17:00:00 11,8 7,3 0,0
22.05.2018 16:00:00 12,3 7,0 0,0
22.05.2018 15:00:00 12,4 6,8 0,0
22.05.2018 14:00:00 12,6 6,8 0,0
22.05.2018 13:00:00 12,8 6,8 0,0
22.05.2018 12:00:00 11,8 5,5 0,0
22.05.2018 11:00:00 11,5 6,0 0,0
22.05.2018 10:00:00 10,4 5,0 0,0
22.05.2018 09:00:00 9,8 4,9 0,0
22.05.2018 08:00:00 8,9 4,2 0,0
22.05.2018 07:00:00 8,3 4,0 0,0
22.05.2018 06:00:00 8,0 3,4 0,0

tt = Température de l'air
td = dewpoint
rr = Quantités de précipitations

stations d'obs. à proximité